SNJ86 ROAH-RJFK

Flight info

Callsign SNJ86
Flight time 1h 0m
Altitude 35000
Route AMAMI Y25 BOMAP Y455 KINKO
Aircraft B738/M-SDE2E3FGHIRWXY/LB1

Departure

Time 2026-04-29 11:08
Airport Naha International Airport (ROAH)

Arrival

Time 2026-04-29 12:09
Airport Kagoshima Airport (RJFK)
Time Latitude Longitude Altitude Speed Heading
2026-04-29 10:44 26.20724 127.64857 20 ft 0 kts 47°
2026-04-29 11:00 26.20715 127.64845 20 ft 4 kts 47°
2026-04-29 11:00 26.20700 127.64828 19 ft 4 kts 51°
2026-04-29 11:00 26.20690 127.64803 21 ft 4 kts 91°
2026-04-29 11:01 26.20688 127.64778 17 ft 3 kts 70°
2026-04-29 11:01 26.20681 127.64762 19 ft 4 kts 48°
2026-04-29 11:01 26.20660 127.64747 17 ft 4 kts 11°
2026-04-29 11:01 26.20635 127.64744 16 ft 2 kts 358°
2026-04-29 11:02 26.20633 127.64744 16 ft 1 kts 358°
2026-04-29 11:04 26.20636 127.64744 16 ft 1 kts 358°
2026-04-29 11:04 26.20649 127.64744 17 ft 3 kts 359°
2026-04-29 11:05 26.20686 127.64742 16 ft 7 kts 358°
2026-04-29 11:05 26.20749 127.64739 16 ft 11 kts 357°
2026-04-29 11:05 26.20830 127.64736 16 ft 12 kts 358°
2026-04-29 11:05 26.20896 127.64698 18 ft 12 kts 297°
2026-04-29 11:06 26.20901 127.64642 15 ft 0 kts 268°
2026-04-29 11:06 26.20901 127.64618 15 ft 9 kts 268°
2026-04-29 11:07 26.20894 127.64548 18 ft 9 kts 243°
2026-04-29 11:07 26.20858 127.64528 17 ft 0 kts 181°
2026-04-29 11:07 26.20677 127.64536 18 ft 66 kts 177°
2026-04-29 11:08 26.19945 127.64570 14 ft 141 kts 178°
2026-04-29 11:08 26.18773 127.64655 248 ft 185 kts 176°
2026-04-29 11:08 26.17393 127.64679 818 ft 211 kts 179°
2026-04-29 11:08 26.16009 127.64721 2027 ft 192 kts 176°
2026-04-29 11:09 26.14611 127.64806 2656 ft 212 kts 176°
2026-04-29 11:09 26.13026 127.64902 2876 ft 243 kts 176°
2026-04-29 11:09 26.11267 127.64999 3416 ft 259 kts 177°
2026-04-29 11:09 26.09440 127.65087 4235 ft 263 kts 178°
2026-04-29 11:10 26.07603 127.65170 5101 ft 267 kts 178°
2026-04-29 11:10 26.05759 127.65251 5925 ft 269 kts 179°
2026-04-29 11:10 26.03892 127.65467 6747 ft 274 kts 164°
2026-04-29 11:10 26.02222 127.66532 7449 ft 283 kts 137°
2026-04-29 11:11 26.01161 127.68391 8145 ft 293 kts 108°
2026-04-29 11:11 26.00939 127.70654 8875 ft 298 kts 89°
2026-04-29 11:11 26.01056 127.72982 9593 ft 305 kts 81°
2026-04-29 11:11 26.01832 127.75158 10224 ft 310 kts 56°
2026-04-29 11:12 26.03178 127.77147 10501 ft 331 kts 50°
2026-04-29 11:12 26.04705 127.79188 10665 ft 353 kts 49°
2026-04-29 11:12 26.06335 127.81337 10817 ft 374 kts 49°
2026-04-29 11:12 26.08041 127.83611 10966 ft 392 kts 50°
2026-04-29 11:13 26.09806 127.85996 11273 ft 403 kts 50°
2026-04-29 11:13 26.11587 127.88427 11796 ft 407 kts 50°
2026-04-29 11:13 26.13352 127.90848 12374 ft 409 kts 50°
2026-04-29 11:13 26.15152 127.93320 12922 ft 412 kts 50°
2026-04-29 11:14 26.17027 127.95751 13433 ft 415 kts 42°
2026-04-29 11:14 26.19378 127.97595 13934 ft 415 kts 28°
2026-04-29 11:14 26.21887 127.99222 14402 ft 418 kts 28°
2026-04-29 11:14 26.24408 128.00871 14834 ft 422 kts 29°
2026-04-29 11:15 26.26950 128.02553 15261 ft 426 kts 29°
2026-04-29 11:15 26.29498 128.04257 15698 ft 429 kts 29°
2026-04-29 11:15 26.32048 128.05973 16140 ft 432 kts 29°
2026-04-29 11:15 26.34641 128.07726 16571 ft 436 kts 29°
2026-04-29 11:16 26.37248 128.09492 16970 ft 439 kts 29°
2026-04-29 11:16 26.39867 128.11269 17387 ft 442 kts 29°
2026-04-29 11:16 26.42508 128.13061 17808 ft 445 kts 29°
2026-04-29 11:16 26.45163 128.14863 18217 ft 448 kts 29°
2026-04-29 11:17 26.47838 128.16679 18572 ft 451 kts 29°
2026-04-29 11:17 26.50494 128.18483 18929 ft 454 kts 29°
2026-04-29 11:17 26.53201 128.20323 19277 ft 456 kts 29°
2026-04-29 11:17 26.55953 128.22194 19625 ft 458 kts 29°
2026-04-29 11:18 26.58651 128.24030 19957 ft 461 kts 29°
2026-04-29 11:18 26.61395 128.25898 20283 ft 463 kts 29°
2026-04-29 11:18 26.64159 128.27781 20611 ft 466 kts 29°
2026-04-29 11:18 26.66925 128.29666 20931 ft 468 kts 30°
2026-04-29 11:19 26.69538 128.31887 21195 ft 475 kts 45°
2026-04-29 11:19 26.71631 128.34749 21535 ft 477 kts 51°
2026-04-29 11:19 26.73648 128.37699 21846 ft 479 kts 51°
2026-04-29 11:19 26.75686 128.40669 22111 ft 482 kts 51°
2026-04-29 11:20 26.77752 128.43641 22370 ft 484 kts 51°
2026-04-29 11:20 26.79835 128.46600 22651 ft 486 kts 51°
2026-04-29 11:20 26.81924 128.49548 22937 ft 488 kts 50°
2026-04-29 11:20 26.84042 128.52529 23203 ft 490 kts 50°
2026-04-29 11:21 26.86166 128.55520 23452 ft 492 kts 50°
2026-04-29 11:21 26.88299 128.58526 23683 ft 494 kts 50°
2026-04-29 11:21 26.90438 128.61548 23894 ft 496 kts 50°
2026-04-29 11:21 26.92626 128.64544 24105 ft 496 kts 45°
2026-04-29 11:22 26.95304 128.66968 24266 ft 494 kts 28°
2026-04-29 11:22 26.98319 128.68785 24529 ft 493 kts 25°
2026-04-29 11:22 27.01373 128.70569 24745 ft 494 kts 25°
2026-04-29 11:22 27.04423 128.72353 24923 ft 497 kts 25°
2026-04-29 11:23 27.07493 128.74167 25105 ft 499 kts 25°
2026-04-29 11:23 27.10564 128.76003 25310 ft 500 kts 26°
2026-04-29 11:23 27.13636 128.77855 25501 ft 501 kts 26°
2026-04-29 11:23 27.16708 128.79719 25700 ft 503 kts 26°
2026-04-29 11:24 27.19749 128.81571 25863 ft 504 kts 26°
2026-04-29 11:24 27.22839 128.83454 26045 ft 505 kts 26°
2026-04-29 11:24 27.25937 128.85343 26226 ft 507 kts 26°
2026-04-29 11:24 27.29044 128.87238 26403 ft 508 kts 26°
2026-04-29 11:25 27.32156 128.89136 26572 ft 509 kts 26°
2026-04-29 11:25 27.35280 128.91043 26733 ft 511 kts 26°
2026-04-29 11:25 27.38405 128.92950 26902 ft 512 kts 26°
2026-04-29 11:25 27.41532 128.94859 27141 ft 511 kts 26°
2026-04-29 11:26 27.47759 128.98668 27724 ft 508 kts 26°
2026-04-29 11:26 27.50830 129.00547 28005 ft 508 kts 26°
2026-04-29 11:26 27.53932 129.02447 28228 ft 508 kts 26°
2026-04-29 11:27 27.57040 129.04351 28498 ft 507 kts 26°
2026-04-29 11:27 27.60139 129.06251 28788 ft 506 kts 26°
2026-04-29 11:27 27.63229 129.08147 29088 ft 505 kts 25°
2026-04-29 11:27 27.66308 129.10037 29368 ft 505 kts 25°
2026-04-29 11:28 27.69397 129.11935 29678 ft 504 kts 25°
2026-04-29 11:28 27.72467 129.13822 29990 ft 503 kts 25°
2026-04-29 11:28 27.75544 129.15715 30288 ft 502 kts 25°
2026-04-29 11:28 27.78606 129.17600 30556 ft 501 kts 25°
2026-04-29 11:29 27.81665 129.19484 30811 ft 500 kts 25°
2026-04-29 11:29 27.84686 129.21346 31082 ft 499 kts 25°
2026-04-29 11:29 27.87727 129.23222 31367 ft 498 kts 25°
2026-04-29 11:29 27.90769 129.25099 31645 ft 497 kts 25°
2026-04-29 11:30 27.93841 129.26996 31912 ft 497 kts 25°
2026-04-29 11:30 27.96870 129.28867 32167 ft 497 kts 25°
2026-04-29 11:30 27.99864 129.30718 32427 ft 496 kts 25°
2026-04-29 11:30 28.02895 129.32593 32715 ft 495 kts 25°
2026-04-29 11:31 28.05924 129.34469 32974 ft 495 kts 25°
2026-04-29 11:31 28.08954 129.36346 33210 ft 495 kts 25°
2026-04-29 11:31 28.11974 129.38218 33472 ft 495 kts 25°
2026-04-29 11:31 28.14993 129.40091 33735 ft 495 kts 25°
2026-04-29 11:32 28.18015 129.41967 33961 ft 495 kts 25°
2026-04-29 11:32 28.21034 129.43842 34165 ft 495 kts 25°
2026-04-29 11:32 28.24064 129.45726 34413 ft 494 kts 25°
2026-04-29 11:32 28.27071 129.47596 34684 ft 492 kts 25°
2026-04-29 11:33 28.30067 129.49461 34911 ft 491 kts 25°
2026-04-29 11:33 28.33073 129.51333 35033 ft 491 kts 25°
2026-04-29 11:33 28.39004 129.55030 35028 ft 491 kts 25°
2026-04-29 11:34 28.45121 129.58518 34998 ft 484 kts 11°
2026-04-29 11:34 28.51669 129.59679 35025 ft 475 kts
2026-04-29 11:35 28.58258 129.60568 35030 ft 476 kts
2026-04-29 11:35 28.64838 129.61521 35035 ft 477 kts
2026-04-29 11:36 28.71423 129.62525 35038 ft 478 kts
2026-04-29 11:36 28.77962 129.63534 35055 ft 479 kts
2026-04-29 11:37 28.84578 129.64554 35046 ft 479 kts
2026-04-29 11:37 28.91213 129.65575 35040 ft 480 kts
2026-04-29 11:38 28.97838 129.66596 35045 ft 480 kts
2026-04-29 11:38 29.04454 129.67617 35042 ft 480 kts
2026-04-29 11:39 29.11092 129.68642 35050 ft 481 kts
2026-04-29 11:39 29.17720 129.69654 35049 ft 481 kts
2026-04-29 11:40 29.24322 129.70638 35053 ft 481 kts
2026-04-29 11:40 29.30431 129.71552 35048 ft 481 kts
2026-04-29 11:41 29.37083 129.72554 35052 ft 481 kts
2026-04-29 11:41 29.43731 129.73579 35008 ft 482 kts
2026-04-29 11:42 29.50364 129.74610 35045 ft 482 kts
2026-04-29 11:42 29.55900 129.75469 35055 ft 483 kts
2026-04-29 11:43 29.62561 129.76502 35058 ft 484 kts
2026-04-29 11:43 29.69242 129.77540 35063 ft 485 kts
2026-04-29 11:44 29.77034 129.78752 35053 ft 486 kts
2026-04-29 11:44 29.82630 129.79624 35054 ft 486 kts
2026-04-29 11:45 29.90469 129.80848 35055 ft 486 kts
2026-04-29 11:45 29.96050 129.81720 35056 ft 486 kts
2026-04-29 11:46 30.02644 129.83824 35059 ft 501 kts 19°
2026-04-29 11:46 30.08778 129.87776 35063 ft 507 kts 25°
2026-04-29 11:47 30.14826 129.91967 35055 ft 501 kts 25°
2026-04-29 11:47 30.17784 129.93985 34884 ft 495 kts 25°
2026-04-29 11:47 30.20779 129.95999 34268 ft 495 kts 24°
2026-04-29 11:48 30.23759 129.97987 33612 ft 496 kts 24°
2026-04-29 11:48 30.26722 129.99960 32906 ft 498 kts 25°
2026-04-29 11:48 30.29743 130.01976 32191 ft 499 kts 25°
2026-04-29 11:48 30.32750 130.03989 31459 ft 501 kts 25°
2026-04-29 11:49 30.35784 130.06022 30680 ft 504 kts 26°
2026-04-29 11:49 30.38826 130.08058 29846 ft 507 kts 26°
2026-04-29 11:49 30.41893 130.10111 28924 ft 510 kts 26°
2026-04-29 11:49 30.44970 130.12171 28028 ft 511 kts 26°
2026-04-29 11:50 30.48039 130.14227 27121 ft 513 kts 26°
2026-04-29 11:50 30.50957 130.16185 26207 ft 516 kts 26°
2026-04-29 11:50 30.54086 130.18285 25292 ft 519 kts 26°
2026-04-29 11:50 30.57158 130.20351 24586 ft 515 kts 26°
2026-04-29 11:51 30.60255 130.22437 23879 ft 512 kts 26°
2026-04-29 11:51 30.63321 130.24502 23068 ft 510 kts 26°
2026-04-29 11:51 30.66678 130.26765 22251 ft 504 kts 26°
2026-04-29 11:51 30.69703 130.28806 21548 ft 499 kts 26°
2026-04-29 11:52 30.72688 130.30820 20856 ft 494 kts 26°
2026-04-29 11:52 30.75614 130.32796 20148 ft 490 kts 26°
2026-04-29 11:52 30.78558 130.34785 19517 ft 484 kts 26°
2026-04-29 11:52 30.81470 130.36753 18884 ft 481 kts 26°
2026-04-29 11:53 30.84323 130.38684 18088 ft 479 kts 26°
2026-04-29 11:53 30.87199 130.40630 17576 ft 469 kts 26°
2026-04-29 11:53 30.90027 130.42546 16679 ft 470 kts 26°
2026-04-29 11:53 30.92822 130.44442 16157 ft 459 kts 26°
2026-04-29 11:54 30.95598 130.46324 15406 ft 459 kts 26°
2026-04-29 11:54 30.98325 130.48176 14765 ft 453 kts 26°
2026-04-29 11:54 31.01044 130.50022 14218 ft 448 kts 27°
2026-04-29 11:54 31.03685 130.51817 13436 ft 446 kts 27°
2026-04-29 11:55 31.06349 130.53629 12991 ft 437 kts 27°
2026-04-29 11:55 31.08970 130.55413 12151 ft 437 kts 27°
2026-04-29 11:55 31.11551 130.57172 11781 ft 425 kts 27°
2026-04-29 11:55 31.14101 130.58909 11306 ft 418 kts 27°
2026-04-29 11:56 31.16555 130.60584 11060 ft 405 kts 27°
2026-04-29 11:56 31.18970 130.62233 10881 ft 392 kts 27°
2026-04-29 11:56 31.21289 130.63813 10706 ft 380 kts 27°
2026-04-29 11:56 31.23531 130.65341 10623 ft 366 kts 26°
2026-04-29 11:57 31.25694 130.66815 10538 ft 353 kts 26°
2026-04-29 11:57 31.27783 130.68238 10461 ft 341 kts 26°
2026-04-29 11:57 31.29797 130.69612 10389 ft 330 kts 26°
2026-04-29 11:57 31.31746 130.70943 10320 ft 319 kts 26°
2026-04-29 11:58 31.33617 130.72249 10201 ft 307 kts 30°
2026-04-29 11:58 31.35318 130.73724 9961 ft 299 kts 35°
2026-04-29 11:58 31.36870 130.75217 9901 ft 279 kts 36°
2026-04-29 11:58 31.38315 130.76619 9778 ft 260 kts 36°
2026-04-29 11:59 31.39522 130.77781 9637 ft 246 kts 35°
2026-04-29 11:59 31.40823 130.79018 9293 ft 241 kts 35°
2026-04-29 11:59 31.42138 130.80258 8904 ft 238 kts 36°
2026-04-29 11:59 31.43393 130.81437 8692 ft 226 kts 36°
2026-04-29 12:00 31.44584 130.82556 8431 ft 217 kts 36°
2026-04-29 12:00 31.45755 130.83654 8078 ft 214 kts 36°
2026-04-29 12:00 31.46906 130.84731 7772 ft 210 kts 36°
2026-04-29 12:00 31.48053 130.85804 7246 ft 214 kts 37°
2026-04-29 12:01 31.49202 130.86883 6907 ft 209 kts 37°
2026-04-29 12:01 31.50325 130.87935 6559 ft 206 kts 38°
2026-04-29 12:01 31.51432 130.88973 6293 ft 201 kts 38°
2026-04-29 12:01 31.52602 130.89838 6035 ft 200 kts 12°
2026-04-29 12:02 31.53929 130.89724 5859 ft 196 kts 332°
2026-04-29 12:02 31.55143 130.88933 5661 ft 199 kts 327°
2026-04-29 12:02 31.56349 130.88122 5413 ft 199 kts 328°
2026-04-29 12:02 31.57530 130.87328 5180 ft 193 kts 328°
2026-04-29 12:03 31.58676 130.86557 5017 ft 184 kts 329°
2026-04-29 12:03 31.59760 130.85827 4767 ft 176 kts 329°
2026-04-29 12:03 31.60805 130.85124 4556 ft 171 kts 329°
2026-04-29 12:03 31.61830 130.84433 4367 ft 170 kts 330°
2026-04-29 12:04 31.62867 130.83737 4216 ft 174 kts 330°
2026-04-29 12:04 31.63922 130.83026 3989 ft 174 kts 331°
2026-04-29 12:04 31.64962 130.82326 3810 ft 171 kts 330°
2026-04-29 12:04 31.65984 130.81637 3631 ft 172 kts 331°
2026-04-29 12:05 31.67022 130.80937 3445 ft 172 kts 331°
2026-04-29 12:05 31.68052 130.80243 3306 ft 166 kts 332°
2026-04-29 12:05 31.69043 130.79579 3170 ft 161 kts 332°
2026-04-29 12:05 31.70021 130.78920 2954 ft 161 kts 331°
2026-04-29 12:06 31.70983 130.78270 2759 ft 158 kts 332°
2026-04-29 12:06 31.71934 130.77626 2535 ft 157 kts 332°
2026-04-29 12:06 31.72884 130.76983 2342 ft 157 kts 332°
2026-04-29 12:06 31.73524 130.76550 2201 ft 157 kts 332°
2026-04-29 12:07 31.74476 130.75906 2001 ft 155 kts 332°
2026-04-29 12:07 31.75402 130.75273 1836 ft 155 kts 332°
2026-04-29 12:07 31.76328 130.74621 1696 ft 151 kts 330°
2026-04-29 12:07 31.76856 130.74229 1626 ft 150 kts 329°
2026-04-29 12:08 31.77779 130.73628 1261 ft 152 kts 332°
2026-04-29 12:08 31.78673 130.73050 1072 ft 143 kts 333°
2026-04-29 12:08 31.79546 130.72479 918 ft 143 kts 330°
2026-04-29 12:08 31.80197 130.72034 914 ft 59 kts 330°
2026-04-29 12:09 31.80463 130.71855 917 ft 31 kts 328°
2026-04-29 12:09 31.80511 130.71762 912 ft 12 kts 252°
2026-04-29 12:09 31.80480 130.71691 911 ft 7 kts 240°
2026-04-29 12:09 31.80424 130.71656 904 ft 11 kts 174°
2026-04-29 12:10 31.80353 130.71696 904 ft 11 kts 149°
2026-04-29 12:10 31.80290 130.71740 909 ft 10 kts 150°
2026-04-29 12:10 31.80229 130.71776 907 ft 4 kts 176°
2026-04-29 12:10 31.80215 130.71751 904 ft 6 kts 245°
2026-04-29 12:11 31.80191 130.71697 901 ft 7 kts 239°
2026-04-29 12:11 31.80180 130.71675 904 ft 2 kts 239°
2026-04-29 12:11 31.80174 130.71664 903 ft 1 kts 240°
2026-04-29 12:11 31.80173 130.71662 902 ft 0 kts 240°